College Park, MD

3:43 AM EST on January 19, 2017 (GMT -0500)
College Park

Weather History for KCGS - January, 2014

Change the Weather History Date:

Tuesday, January 7, 2014

  Actual Average Record
Temperature  
Mean Temperature 12 °F -  
Max Temperature 19 °F 41 °F 69 °F (1950)
Min Temperature 5 °F 26 °F 5 °F (2014)
Degree Days  
Heating Degree Days 53    
Moisture  
Dew Point -11 °F    
Average Humidity 35    
Maximum Humidity 66    
Minimum Humidity 26    
Precipitation  
Precipitation 0.00 in - - ()
Sea Level Pressure  
Sea Level Pressure 30.33 in    
Wind  
Wind Speed 10 mph (WSW)    
Max Wind Speed 16 mph    
Max Gust Speed 28 mph    
Visibility 10 miles    
Events      
Averages and records for this station are not official NWS values.
T = Trace of Precipitation, MM = Missing Value Source: NWS Daily Summary

Daily Weather History Graph

Daily Weather History Graph

Search for Another Location

Airport or City:

Trip Planner

Search our weather history database for the weather conditions in past years. The results will help you decide how hot, cold, wet, or windy it might be!

Date:

Astronomy

Jan. 07, 2014 Rise Set
Actual Time 7:26 AM EST 5:01 PM EST
Civil Twilight 6:57 AM EST 5:31 PM EST
Nautical Twilight 6:23 AM EST 6:04 PM EST
Astronomical Twilight 5:51 AM EST 6:36 PM EST
Moon 11:18 AM EST (1/7) No Moon Set
Length of Visible Light 10h 34m
Length of Day
9h 34m
Waxing Crescent, 45% of the Moon is Illuminated
Jan 7
Waxing Crescent
Jan 7
First Quarter
Jan 15
Full
Jan 24
Last Quarter
Jan 30
New

Hourly Weather History & Observations

Time (EST) Temp. Windchill Dew Point Humidity Pressure Visibility Wind Dir Wind Speed Gust Speed Precip Events Conditions
12:20 AM 10.4 °F -2.4 °F -12.6 °F 35% 30.11 in 10.0 mi WSW 9.2 mph 23.0 mph N/A   Clear
12:40 AM 10.0 °F -6.5 °F -12.5 °F 36% 30.11 in 10.0 mi WSW 15.0 mph 25.3 mph N/A   Clear
1:00 AM 9.5 °F -6.6 °F -13.0 °F 36% 30.12 in 10.0 mi WSW 13.8 mph 24.2 mph N/A   Clear
1:20 AM 9.1 °F -6.4 °F -11.9 °F 38% 30.13 in 10.0 mi WSW 12.7 mph 23.0 mph N/A   Clear
1:40 AM 8.8 °F -7.5 °F -13.0 °F 37% 30.14 in 10.0 mi WSW 13.8 mph 24.2 mph N/A   Clear
1:55 AM 8.6 °F -6.3 °F -13.2 °F 37% 30.15 in 10.0 mi WSW 11.5 mph 19.6 mph N/A   Clear
2:20 AM 8.1 °F -7.0 °F -13.2 °F 38% 30.17 in 10.0 mi WSW 11.5 mph 24.2 mph N/A   Clear
2:40 AM 7.9 °F -7.2 °F -14.4 °F 36% 30.18 in 10.0 mi WSW 11.5 mph 19.6 mph N/A   Clear
3:00 AM 7.7 °F -9.5 °F -14.8 °F 35% 30.20 in 10.0 mi West 15.0 mph 26.5 mph N/A   Clear
3:20 AM 7.5 °F -6.9 °F -14.3 °F 36% 30.20 in 10.0 mi WSW 10.4 mph 19.6 mph N/A   Clear
3:40 AM 7.3 °F -8.6 °F -14.8 °F 36% 30.21 in 10.0 mi WSW 12.7 mph 27.6 mph N/A   Clear
4:00 AM 7.2 °F -6.4 °F -14.1 °F 37% 30.22 in 10.0 mi WSW 9.2 mph 23.0 mph N/A   Clear
4:20 AM 7.2 °F -8.9 °F -14.4 °F 37% 30.24 in 10.0 mi WSW 12.7 mph 21.9 mph N/A   Clear
4:40 AM 6.8 °F -5.9 °F -14.1 °F 38% 30.25 in 10.0 mi WSW 8.1 mph 18.4 mph N/A   Clear
5:00 AM 6.8 °F -6.9 °F -12.5 °F 41% 30.26 in 10.0 mi West 9.2 mph - N/A   Scattered Clouds
5:20 AM 6.6 °F -10.2 °F -12.1 °F 42% 30.27 in 10.0 mi WSW 13.8 mph 23.0 mph N/A   Scattered Clouds
5:40 AM 6.6 °F -11.5 °F -11.4 °F 44% 30.27 in - WSW 16.1 mph 21.9 mph N/A   Scattered Clouds
6:00 AM 6.6 °F -8.8 °F -13.0 °F 40% 30.28 in - WSW 11.5 mph 19.6 mph N/A   Clear
6:20 AM 6.3 °F -11.3 °F -14.3 °F 39% 30.30 in - WSW 15.0 mph 26.5 mph N/A   Clear
6:40 AM 5.9 °F -11.2 °F -13.4 °F 41% 30.31 in - WSW 13.8 mph 19.6 mph N/A   Clear
7:00 AM 5.9 °F -11.2 °F -14.1 °F 40% 30.32 in - WSW 13.8 mph 19.6 mph N/A   Clear
7:20 AM 5.9 °F -11.2 °F -15.3 °F 37% 30.32 in - WSW 13.8 mph 25.3 mph N/A   Clear
7:40 AM 5.9 °F -9.7 °F -15.3 °F 37% 30.33 in - WSW 11.5 mph 24.2 mph N/A   Clear
8:00 AM 6.4 °F -8.2 °F -14.8 °F 37% 30.34 in - WSW 10.4 mph - N/A   Clear
8:20 AM 7.2 °F -9.6 °F -15.0 °F 36% 30.36 in - WSW 13.8 mph 17.3 mph N/A   Clear
8:40 AM 7.7 °F -5.8 °F -14.4 °F 36% 30.37 in - WSW 9.2 mph 18.4 mph N/A   Clear
9:00 AM 8.2 °F -6.8 °F -14.1 °F 36% 30.39 in - WSW 11.5 mph 21.9 mph N/A   Clear
9:20 AM 8.6 °F -6.3 °F -13.5 °F 36% 30.38 in - WSW 11.5 mph 17.3 mph N/A   Clear
9:40 AM 9.5 °F -3.5 °F -13.5 °F 35% 30.38 in - WSW 9.2 mph 16.1 mph N/A   Clear
10:00 AM 10.2 °F -2.7 °F -13.4 °F 34% 30.38 in - West 9.2 mph 17.3 mph N/A   Clear
10:20 AM 10.6 °F -5.2 °F -13.4 °F 33% 30.39 in - WSW 13.8 mph 24.2 mph N/A   Clear
10:40 AM 10.8 °F -5.6 °F -13.5 °F 33% 30.40 in - WSW 15.0 mph 20.7 mph N/A   Clear
11:00 AM 12.2 °F 0.7 °F -12.3 °F 33% 30.40 in - WSW 8.1 mph - N/A   Clear
11:20 AM 12.0 °F -3.4 °F -12.8 °F 32% 30.39 in - WSW 13.8 mph 24.2 mph N/A   Clear
11:40 AM 13.5 °F -0.2 °F -11.9 °F 32% 30.38 in - WSW 11.5 mph 17.3 mph N/A   Clear
12:00 PM 13.6 °F 2.5 °F -11.9 °F 31% 30.36 in - WSW 8.1 mph - N/A   Clear
12:20 PM 14.7 °F 3.8 °F -11.4 °F 31% 30.35 in - WSW 8.1 mph - N/A   Clear
12:40 PM 14.9 °F -0.8 °F -12.6 °F 29% 30.36 in - WSW 16.1 mph 21.9 mph N/A   Clear
1:00 PM 15.6 °F 0.6 °F -12.1 °F 29% 30.36 in - WSW 15.0 mph 20.7 mph N/A   Clear
1:20 PM 16.2 °F 1.3 °F -12.3 °F 28% 30.34 in - WSW 15.0 mph 19.6 mph N/A   Clear
1:40 PM 16.9 °F 7.4 °F -11.2 °F 28% 30.33 in - WSW 6.9 mph 23.0 mph N/A   Clear
2:00 PM 18.0 °F 5.4 °F -11.6 °F 26% 30.33 in - WSW 11.5 mph 17.3 mph N/A   Clear
2:20 PM 17.4 °F 6.2 °F -11.2 °F 28% 30.32 in - WSW 9.2 mph - N/A   Clear
2:40 PM 18.1 °F 7.1 °F -11.0 °F 27% 30.33 in - WSW 9.2 mph 17.3 mph N/A   Clear
3:00 PM 18.5 °F 6.1 °F -10.8 °F 27% 30.33 in - WSW 11.5 mph 16.1 mph N/A   Clear
3:20 PM 18.5 °F 8.4 °F -10.3 °F 28% 30.34 in - WSW 8.1 mph - N/A   Clear
3:40 PM 19.0 °F 9.0 °F -9.6 °F 28% 30.34 in - WSW 8.1 mph - N/A   Clear
4:00 PM 18.9 °F 8.0 °F -9.4 °F 28% 30.34 in - WSW 9.2 mph - N/A   Clear
4:15 PM 18.5 °F 9.3 °F -8.9 °F 29% 30.33 in - SW 6.9 mph - N/A   Clear
4:40 PM 17.6 °F 8.2 °F -8.9 °F 31% 30.34 in - SW 6.9 mph - N/A   Clear
5:00 PM 17.1 °F 11.7 °F -8.9 °F 31% 30.34 in - WSW 3.5 mph - N/A   Clear
5:20 PM 16.5 °F 9.4 °F -8.7 °F 32% 30.35 in - SW 4.6 mph - N/A   Clear
5:40 PM 16.7 °F 11.2 °F -8.3 °F 33% 30.37 in - WSW 3.5 mph - N/A   Clear
6:00 PM 16.7 °F 9.6 °F -8.3 °F 33% 30.38 in - WSW 4.6 mph - N/A   Clear
6:20 PM 16.5 °F 11.0 °F -7.8 °F 34% 30.39 in - WSW 3.5 mph - N/A   Clear
6:40 PM 16.3 °F 10.8 °F -7.8 °F 34% 30.40 in - WSW 3.5 mph - N/A   Clear
7:00 PM 16.3 °F 7.8 °F -8.1 °F 33% 30.41 in - WSW 5.8 mph - N/A   Clear
7:20 PM 16.2 °F 9.0 °F -8.3 °F 33% 30.42 in - WSW 4.6 mph - N/A   Clear
7:40 PM 15.8 °F 8.6 °F -8.3 °F 34% 30.43 in - WSW 4.6 mph - N/A   Clear
8:00 PM 15.6 °F - -7.6 °F 35% 30.43 in - Calm Calm - N/A   Clear
8:20 PM 15.6 °F - -8.1 °F 34% 30.43 in - Calm Calm - N/A   Clear
8:40 PM 15.3 °F - -7.8 °F 36% 30.43 in - Calm Calm - N/A   Clear
9:00 PM 15.4 °F 9.8 °F -7.8 °F 35% 30.44 in - WSW 3.5 mph - N/A   Clear
9:15 PM 14.9 °F 9.2 °F -6.9 °F 38% 30.44 in - WSW 3.5 mph - N/A   Clear
9:40 PM 14.9 °F - -6.3 °F 39% 30.45 in - Calm Calm - N/A   Clear
10:00 PM 13.8 °F - -2.7 °F 48% 30.46 in - Calm Calm - N/A   Clear
10:20 PM 14.9 °F 9.2 °F -6.3 °F 39% 30.46 in - West 3.5 mph - N/A   Clear
10:40 PM 14.9 °F - -5.8 °F 40% 30.46 in - Calm Calm - N/A   Clear
11:00 PM 14.9 °F 9.2 °F -6.3 °F 39% 30.46 in - SW 3.5 mph - N/A   Clear
11:20 PM 12.2 °F - 0.7 °F 60% 30.46 in - Calm Calm - N/A   Clear
11:40 PM 11.7 °F - 2.1 °F 66% 30.46 in - Calm Calm - N/A   Clear